STARLINK-32808, 62863

Orbit data source: Space-Track

STARLINK-32808, 62863 is a payload satellite owned by SpaceX/Seattle (US) in LEO that was launched on Sat, 01 Feb 2025 UTC via an FALCON 9 launch vehicle from the Air Force Western Test Range (AFWTR). Payload-class satellites include a variety of spacecraft equipped with specific instruments for various scientific and technological missions. These include communications satellites like Starlink; space stations such as the ISS; scientific satellites like the Hubble; Earth observation satellites from companies like Planet Labs, Umbra, and HawkEye 360; GPS; miniature CubeSats for education and research; and military/defense satellites.

Loading next visibility...
Identifier
62863, 2025-022K
Orbit
LEO
Country
Flag of USUS
Related business
Manufacturer
SpaceX/Seattle
Mission
Operational Commercial Communications
Bus & Motor
STARLINK V2M, Unknown motor
Mass
730 kg wet, ~700 kg dry
Launch date (UTC)
2025-02-01 (8 months ago)
Launch vehicle
FALCON 9
Launch site
Air Force Western Test Range (AFWTR)
Object type
Payload
Rocket body
Debris
Shape & HBR
Box + 2 Pan, 14.5 m
Radar Cross Section
33.884 m², Large (>1 m²)

Expand to show TLE details & history
Last TLE update: 9 hours ago

TLE from 9 hours ago
0 STARLINK-32808
1 62863U 25022K   25261.16670722  .00001703  00000-0  69667-4 0  9992
2 62863  53.1562 211.1389 0001410 108.6269 251.4885 15.30170243 35481
Epoch: 2025-09-18T04:00Z
TLE epoch observation values (Epoch: 2025-09-18T04:00:03.503Z)
Latitude
-0.00003°
Longitude
153.79208°
Altitude
476.51 km
Speed
7.629 km/s
True Right ascension
14h 04m 33s
True Declination
0° 00' 00"
Sunlit
Object was in daylight at epoch
Visualization orbit readout
Latitude
Unknown
Longitude
Unknown
Altitude
Unknown
Speed
Unknown
Apparent Right ascension
Unknown
Apparent Declination
Unknown
Sunlit
N/A
Visualization observer readout
Local Sidereal Time
06:16:27
Azimuth
Unknown
Elevation
Unknown
Doppler factor
Unknown
Orbital elements
Apogee altitude
476.527 km
Perigee altitude
474.595 km
Semi-major axis
6,853.698 km
Eccentricity
0.00014
Inclination
53.1562°
RAAN
211.1389°
Arg. of periapsis
108.6269°
True anomaly
251.47318°
Mean anomaly
251.4885°
Eccentric anomaly
251.48084°
Mean motion
3.82521 °/min
Orbital period
94.11 mins
BSTAR
0.000069667
Loading maneuver chart data...
Computing Atmospheric mass density...
Loading historical data...
Loading historical data...
Loading historical data...
Loading historical data...
Loading historical data...
Loading historical data...
Loading historical data...

Documentation

Showing up to 5 results
|